Detroit Lakes, MN

9:08 PM CST on December 11, 2017 (GMT -0600)
Detroit Lakes

Weather History for KDTL - June, 2014

Change the Weather History Date:

Sunday, June 15, 2014

  Actual Average Record
Temperature  
Mean Temperature 62 °F -  
Max Temperature 69 °F 74 °F 96 °F (1933)
Min Temperature 55 °F 51 °F 32 °F (1958)
Degree Days  
Heating Degree Days 3    
Growing Degree Days 12 (Base 50)    
Moisture  
Dew Point 55 °F    
Average Humidity 82    
Maximum Humidity 100    
Minimum Humidity 56    
Precipitation  
Precipitation 1.43 in - - ()
Sea Level Pressure  
Sea Level Pressure 29.59 in    
Wind  
Wind Speed 10 mph (SSW)    
Max Wind Speed 21 mph    
Max Gust Speed 31 mph    
Visibility 8 miles    
Events Rain , Thunderstorm    
Averages and records for this station are not official NWS values.
T = Trace of Precipitation, MM = Missing Value Source: NWS Daily Summary

Daily Weather History Graph

Daily Weather History Graph

Search for Another Location

Airport or City:

Trip Planner

Search our weather history database for the weather conditions in past years. The results will help you decide how hot, cold, wet, or windy it might be!

Date:

Astronomy

Jun. 15, 2014 Rise Set
Actual Time 5:28 AM CDT 9:19 PM CDT
Civil Twilight 4:49 AM CDT 9:59 PM CDT
Nautical Twilight 3:55 AM CDT 10:53 PM CDT
Astronomical Twilight 2:36 AM CDT 12:12 AM CDT
Moon 11:18 PM CDT (6/15) 8:32 AM CDT (6/15)
Length of Visible Light 17h 10m
Length of Day
15h 51m
Waning Gibbous, 91% of the Moon is Illuminated
Jun 15
Waning Gibbous
Jun 19
Last Quarter
Jun 27
New
Jul 5
First Quarter
Jul 12
Full

Hourly Weather History & Observations

Time (CDT) Temp. Dew Point Humidity Pressure Visibility Wind Dir Wind Speed Gust Speed Precip Events Conditions
12:15 AM 60.8 °F 57.2 °F 88% 29.68 in 10.0 mi SSE 10.4 mph - N/A   Overcast
12:34 AM 60.8 °F 57.2 °F 88% 29.66 in 10.0 mi SE 10.4 mph - N/A   Overcast
12:55 AM 59.0 °F 57.2 °F 94% 29.66 in 10.0 mi SE 12.7 mph - N/A   Overcast
1:15 AM 60.8 °F 57.2 °F 88% 29.65 in 10.0 mi SSE 9.2 mph - N/A   Overcast
1:34 AM 59.0 °F 57.2 °F 94% 29.64 in 10.0 mi SE 10.4 mph - N/A   Overcast
1:55 AM 60.8 °F 55.4 °F 82% 29.63 in 10.0 mi SSE 12.7 mph 18.4 mph N/A   Overcast
2:14 AM 59.0 °F 55.4 °F 88% 29.64 in 10.0 mi SSE 15.0 mph - N/A   Overcast
2:35 AM 59.0 °F 55.4 °F 88% 29.63 in 10.0 mi SE 9.2 mph - N/A   Overcast
2:54 AM 59.0 °F 55.4 °F 88% 29.63 in 10.0 mi SE 8.1 mph - N/A   Overcast
3:14 AM 59.0 °F 55.4 °F 88% 29.62 in 10.0 mi SE 9.2 mph - N/A   Overcast
3:35 AM 57.2 °F 55.4 °F 94% 29.61 in 4.0 mi SE 8.1 mph - N/A   Heavy Drizzle
3:54 AM 57.2 °F 55.4 °F 94% 29.59 in 3.0 mi SE 5.8 mph - N/A   Drizzle
4:15 AM 55.4 °F 55.4 °F 100% 29.59 in 3.0 mi ESE 4.6 mph - 0.01 in   Light Drizzle
4:34 AM 55.4 °F 55.4 °F 100% 29.59 in 2.5 mi ESE 8.1 mph - 0.01 in   Drizzle
4:55 AM 55.4 °F 55.4 °F 100% 29.59 in 3.0 mi ESE 5.8 mph - 0.02 in   Drizzle
5:15 AM 55.4 °F 55.4 °F 100% 29.59 in 3.0 mi ESE 6.9 mph - 0.01 in Rain Rain
5:34 AM 55.4 °F 55.4 °F 100% 29.58 in 4.0 mi SE 9.2 mph - 0.08 in Rain Light Rain
6:15 AM 55.4 °F 55.4 °F 100% 29.55 in 2.5 mi ESE 5.8 mph - 0.04 in Rain , Thunderstorm Heavy Thunderstorms and Rain
6:35 AM 55.4 °F 55.4 °F 100% 29.56 in 4.0 mi SE 8.1 mph - 0.08 in Rain , Thunderstorm Thunderstorms and Rain
6:55 AM 57.2 °F 55.4 °F 94% 29.55 in 4.0 mi SE 9.2 mph - 0.14 in Rain , Thunderstorm Heavy Thunderstorms and Rain
7:14 AM 57.2 °F 55.4 °F 94% 29.54 in 5.0 mi SE 9.2 mph - 0.04 in Rain Heavy Rain
7:35 AM 57.2 °F 55.4 °F 94% 29.52 in 4.0 mi SE 6.9 mph - 0.11 in Rain Rain
7:55 AM 57.2 °F 55.4 °F 94% 29.51 in 3.0 mi SE 6.9 mph - 0.20 in Rain Rain
8:14 AM 57.2 °F 55.4 °F 94% 29.51 in 3.0 mi SE 9.2 mph - 0.10 in Rain Heavy Rain
8:35 AM 59.0 °F 57.2 °F 94% 29.50 in 5.0 mi SSE 5.8 mph - 0.18 in Rain Rain
8:55 AM 59.0 °F 57.2 °F 94% 29.49 in 5.0 mi SE 4.6 mph - 0.22 in Rain Rain
9:15 AM 59.0 °F 57.2 °F 94% 29.48 in 5.0 mi SSE 5.8 mph - 0.08 in Rain Rain
9:34 AM 59.0 °F 57.2 °F 94% 29.47 in 7.0 mi SSE 3.5 mph - 0.11 in Rain Rain
9:55 AM 59.0 °F 57.2 °F 94% 29.46 in 5.0 mi SE 3.5 mph - 0.15 in Rain Rain
10:15 AM 59.0 °F 57.2 °F 94% 29.45 in 3.0 mi Calm Calm - 0.06 in Rain Heavy Rain
10:34 AM 59.0 °F 57.2 °F 94% 29.45 in 3.0 mi West 5.8 mph - 0.15 in Rain Heavy Rain
10:55 AM 59.0 °F 57.2 °F 94% 29.46 in 4.0 mi West 9.2 mph 16.1 mph 0.29 in Rain Rain
11:15 AM 59.0 °F 57.2 °F 94% 29.46 in 7.0 mi WNW 10.4 mph - 0.04 in Rain Light Rain
11:34 AM 59.0 °F 57.2 °F 94% 29.47 in 10.0 mi WNW 19.6 mph 26.5 mph 0.07 in Rain Rain
11:55 AM 59.0 °F 55.4 °F 88% 29.49 in 4.0 mi WNW 20.7 mph 29.9 mph 0.12 in Rain Rain
12:15 PM 57.2 °F 55.4 °F 94% 29.49 in 7.0 mi WNW 18.4 mph 27.6 mph 0.05 in Rain Rain
12:34 PM 57.2 °F 55.4 °F 94% 29.50 in 10.0 mi WNW 16.1 mph 24.2 mph 0.08 in Rain Light Rain
12:55 PM 59.0 °F 55.4 °F 88% 29.51 in 10.0 mi WNW 16.1 mph 20.7 mph 0.09 in Rain Light Rain
1:14 PM 59.0 °F 55.4 °F 88% 29.54 in 10.0 mi WNW 17.3 mph 23.0 mph N/A Rain Light Rain
1:35 PM 59.0 °F 55.4 °F 88% 29.55 in 10.0 mi West 11.5 mph 19.6 mph 0.01 in Rain Rain
1:54 PM 59.0 °F 57.2 °F 94% 29.56 in 7.0 mi West 12.7 mph - 0.04 in Rain Light Rain
2:15 PM 60.8 °F 57.2 °F 88% 29.56 in 10.0 mi WSW 15.0 mph 24.2 mph N/A   Mostly Cloudy
2:35 PM 62.6 °F 57.2 °F 82% 29.58 in 10.0 mi West 13.8 mph 24.2 mph N/A   Mostly Cloudy
2:54 PM 62.6 °F 55.4 °F 77% 29.59 in 10.0 mi West 12.7 mph 24.2 mph N/A   Mostly Cloudy
3:15 PM 64.4 °F 57.2 °F 77% 29.59 in 10.0 mi West 15.0 mph 23.0 mph N/A   Scattered Clouds
3:35 PM 64.4 °F 57.2 °F 77% 29.59 in 10.0 mi WSW 18.4 mph 23.0 mph N/A   Scattered Clouds
3:54 PM 66.2 °F 55.4 °F 68% 29.58 in 10.0 mi West 17.3 mph 25.3 mph N/A   Scattered Clouds
4:14 PM 68.0 °F 55.4 °F 64% 29.59 in 10.0 mi West 16.1 mph 24.2 mph N/A   Scattered Clouds
4:35 PM 66.2 °F 53.6 °F 64% 29.59 in 10.0 mi West 19.6 mph 25.3 mph N/A Thunderstorm Clear
4:55 PM 68.0 °F 55.4 °F 64% 29.59 in 10.0 mi West 10.4 mph 17.3 mph N/A   Clear
5:15 PM 69.8 °F 55.4 °F 60% 29.59 in 10.0 mi West 12.7 mph - N/A   Clear
5:34 PM 68.0 °F 55.4 °F 64% 29.59 in 10.0 mi WSW 13.8 mph 18.4 mph N/A   Clear
5:54 PM 62.6 °F 55.4 °F 77% 29.61 in 5.0 mi WSW 12.7 mph 23.0 mph 0.07 in Rain Light Rain
6:15 PM 66.2 °F 55.4 °F 68% 29.61 in 10.0 mi WSW 11.5 mph 19.6 mph N/A   Clear
6:34 PM 68.0 °F 51.8 °F 56% 29.61 in 10.0 mi WSW 17.3 mph 31.1 mph 0.01 in Thunderstorm Clear
6:54 PM 68.0 °F 51.8 °F 56% 29.62 in 10.0 mi WSW 15.0 mph 21.9 mph 0.01 in   Clear
7:15 PM 68.0 °F 53.6 °F 60% 29.63 in 10.0 mi WSW 10.4 mph 20.7 mph N/A   Clear
7:34 PM 68.0 °F 53.6 °F 60% 29.63 in 10.0 mi WSW 11.5 mph 19.6 mph N/A   Clear
7:54 PM 68.0 °F 51.8 °F 56% 29.63 in 10.0 mi WSW 12.7 mph 19.6 mph N/A   Clear
8:15 PM 66.2 °F 51.8 °F 60% 29.64 in 10.0 mi WSW 8.1 mph 17.3 mph N/A Thunderstorm Clear
8:35 PM 64.4 °F 53.6 °F 68% 29.65 in 10.0 mi WSW 9.2 mph - N/A   Clear
8:54 PM 64.4 °F 53.6 °F 68% 29.66 in 10.0 mi WSW 9.2 mph 17.3 mph N/A   Clear
9:15 PM 64.4 °F 51.8 °F 64% 29.67 in 10.0 mi WSW 10.4 mph 19.6 mph N/A   Clear
9:35 PM 64.4 °F 51.8 °F 64% 29.68 in 10.0 mi WSW 9.2 mph - N/A   Clear
9:54 PM 62.6 °F 51.8 °F 68% 29.68 in 10.0 mi WSW 8.1 mph - N/A   Scattered Clouds
10:15 PM 62.6 °F 51.8 °F 68% 29.70 in 10.0 mi WSW 8.1 mph - N/A   Scattered Clouds
10:35 PM 62.6 °F 51.8 °F 68% 29.71 in 10.0 mi SW 6.9 mph - N/A   Clear
10:54 PM 60.8 °F 53.6 °F 77% 29.71 in 10.0 mi SW 6.9 mph - N/A   Clear
11:15 PM 60.8 °F 51.8 °F 72% 29.71 in 10.0 mi SW 9.2 mph - N/A   Clear
11:35 PM 60.8 °F 51.8 °F 72% 29.73 in 10.0 mi SW 9.2 mph - N/A   Clear
11:54 PM 60.8 °F 51.8 °F 72% 29.73 in 10.0 mi SW 9.2 mph - N/A   Clear